Fort Rucker / Ozark, AL

3:57 PM CDT on August 22, 2017 (GMT -0500)
Fort Rucker / Ozark

Weather History for KLOR - January, 2013

Change the Weather History Date:

Thursday, January 3, 2013

  Actual Average (KOZR) Record (KOZR)
Temperature  
Mean Temperature 42 °F -  
Max Temperature 48 °F 59 °F 78 °F (2000)
Min Temperature 36 °F 37 °F 19 °F (2001)
Degree Days  
Heating Degree Days 22    
Moisture  
Dew Point 39 °F    
Average Humidity 84    
Maximum Humidity 93    
Minimum Humidity 73    
Precipitation  
Precipitation 0.14 in - - ()
Sea Level Pressure  
Sea Level Pressure 30.23 in    
Wind  
Wind Speed 5 mph (North)    
Max Wind Speed 9 mph    
Max Gust Speed -    
Visibility 7 miles    
Events Rain    
Averages and records for this station are not official NWS values.
T = Trace of Precipitation, MM = Missing Value Source: NWS Daily Summary

Daily Weather History Graph

Daily Weather History Graph

Search for Another Location

Airport or City:

Trip Planner

Search our weather history database for the weather conditions in past years. The results will help you decide how hot, cold, wet, or windy it might be!

Date:

Astronomy

Jan. 03, 2013 Rise Set
Actual Time 6:42 AM CST 4:53 PM CST
Civil Twilight 6:15 AM CST 5:19 PM CST
Nautical Twilight 5:45 AM CST 5:49 PM CST
Astronomical Twilight 5:16 AM CST 6:19 PM CST
Moon 11:00 PM CST (1/3) 10:18 AM CST (1/3)
Length of Visible Light 11h 03m
Length of Day
10h 10m
Waning Gibbous, 65% of the Moon is Illuminated
Jan 3
Waning Gibbous
Jan 4
Last Quarter
Jan 11
New
Jan 18
First Quarter
Jan 26
Full

Hourly Weather History & Observations

Time (CST) Temp. Windchill Dew Point Humidity Pressure Visibility Wind Dir Wind Speed Gust Speed Precip Events Conditions
12:53 AM 48.0 °F - 42.1 °F 80% 30.16 in 8.0 mi NNW 4.6 mph - 0.00 in   Overcast
1:53 AM 46.0 °F 43.9 °F 42.1 °F 86% 30.17 in 7.0 mi NNW 4.6 mph - 0.01 in   Overcast
2:53 AM 45.0 °F 42.6 °F 42.1 °F 90% 30.16 in 6.0 mi North 4.6 mph - 0.01 in Rain Light Rain
3:53 AM 45.0 °F 42.6 °F 42.1 °F 90% 30.17 in 5.0 mi North 4.6 mph - 0.00 in Rain Light Rain
4:32 AM 44.6 °F 42.2 °F 41.0 °F 87% 30.17 in 6.0 mi North 4.6 mph - 0.01 in Rain Light Rain
4:41 AM 44.6 °F 42.2 °F 41.0 °F 87% 30.16 in 5.0 mi NNE 4.6 mph - 0.01 in Rain Light Rain
4:53 AM 44.1 °F 41.5 °F 41.0 °F 89% 30.17 in 5.0 mi NNE 4.6 mph - 0.01 in Rain Light Rain
5:53 AM 44.1 °F 42.5 °F 41.0 °F 89% 30.19 in 6.0 mi North 3.5 mph - 0.02 in Rain Light Rain
6:53 AM 44.1 °F - 41.0 °F 89% 30.21 in 5.0 mi Calm Calm - 0.02 in Rain Light Rain
7:26 AM 44.6 °F 43.1 °F 41.0 °F 87% 30.22 in 4.0 mi North 3.5 mph - 0.01 in Rain Light Rain
7:53 AM 44.1 °F 42.5 °F 41.0 °F 89% 30.21 in 4.0 mi North 3.5 mph - 0.02 in Rain Light Rain
8:53 AM 44.1 °F 42.5 °F 41.0 °F 89% 30.25 in 4.0 mi North 3.5 mph - 0.02 in Rain Light Rain
9:53 AM 45.0 °F 41.2 °F 42.1 °F 90% 30.27 in 6.0 mi NW 6.9 mph - 0.02 in Rain Light Rain
10:53 AM 45.0 °F 40.1 °F 42.1 °F 90% 30.24 in 9.0 mi NNW 9.2 mph - 0.01 in   Overcast
11:05 AM 44.6 °F 43.1 °F 42.8 °F 93% 30.23 in 10.0 mi Variable 3.5 mph - N/A   Mostly Cloudy
11:25 AM 44.6 °F 39.7 °F 41.0 °F 87% 30.23 in 10.0 mi NNW 9.2 mph - N/A   Mostly Cloudy
11:53 AM 46.0 °F 42.5 °F 42.1 °F 86% 30.21 in 8.0 mi North 6.9 mph - N/A   Overcast
12:53 PM 46.0 °F 41.9 °F 41.0 °F 83% 30.20 in 6.0 mi North 8.1 mph - N/A   Haze
1:53 PM 46.0 °F 41.9 °F 41.0 °F 83% 30.22 in 5.0 mi North 8.1 mph - N/A   Haze
2:24 PM 46.4 °F 43.5 °F 39.2 °F 76% 30.21 in 6.0 mi NNW 5.8 mph - N/A   Haze
2:37 PM 46.4 °F 41.9 °F 41.0 °F 81% 30.22 in 6.0 mi NNW 9.2 mph - N/A   Haze
2:53 PM 46.9 °F - 39.9 °F 77% 30.23 in 6.0 mi NNW 6.9 mph - N/A   Haze
3:38 PM 46.4 °F 42.4 °F 39.2 °F 76% 30.24 in 7.0 mi North 8.1 mph - N/A   Scattered Clouds
3:53 PM 46.9 °F - 39.0 °F 74% 30.24 in 8.0 mi North 6.9 mph - N/A   Partly Cloudy
4:53 PM 44.1 °F 40.8 °F 37.9 °F 79% 30.25 in 8.0 mi North 5.8 mph - N/A   Clear
5:53 PM 42.1 °F 40.2 °F 37.9 °F 85% 30.27 in 8.0 mi NNW 3.5 mph - N/A   Clear
6:53 PM 41.0 °F - 37.0 °F 86% 30.29 in 7.0 mi Calm Calm - N/A   Clear
7:53 PM 39.9 °F 35.8 °F 36.0 °F 86% 30.30 in 8.0 mi North 5.8 mph - N/A   Clear
8:53 PM 39.9 °F 35.8 °F 33.1 °F 77% 30.31 in 10.0 mi North 5.8 mph - N/A   Clear
9:53 PM 39.9 °F 35.8 °F 32.0 °F 73% 30.32 in 10.0 mi North 5.8 mph - N/A   Clear
10:53 PM 37.9 °F 35.5 °F 32.0 °F 79% 30.32 in 10.0 mi North 3.5 mph - N/A   Clear
11:53 PM 36.0 °F 33.3 °F 30.9 °F 82% 30.31 in 10.0 mi NNE 3.5 mph - N/A   Clear